Volver al catálogo

STARLINK-6047

ActivoComunicacionesVLEO
NORAD 56460·PAYLOAD·🇺🇸 United States

Lanzado May 10, 2023 desde Vandenberg Space Force Base

Loading…

Próximos Pases (próximas 24 horas)

TLE

ActualizadoSource: CelesTrak SupGP

Época: Sep 14, 2026, 22:34 UTC

1 56460C 23064N   26257.94076389 -.00042389  00000+0 -35528-2 0  2573
2 56460  70.0029  27.2302 0003004 276.3820 148.4968 14.98346851    12

Sigue STARLINK-6047 en tiempo real con AllMySat

Download on the App Store